Terug naar catalogus

STARLINK-36253

ActiefCommunicatieSSO
NORAD 68028·PAYLOAD·🇺🇸 United States

Gelanceerd Mar 1, 2026 vanaf Vandenberg Space Force Base

Loading…

Volgende Passages (komende 24 uur)

TLE

VersSource: CelesTrak SupGP

Epoch: Sep 15, 2026, 02:45 UTC

1 68028C 26040P   26258.11506944  .00158520  00000+0  26893-2 0  2587
2 68028  97.2807 205.6232 0006702  96.8461 208.2117 15.51421498    10

Volg STARLINK-36253 in realtime met AllMySat

Download on the App Store